Погода в Зардобе

Азербайджан     40°13′23″N   47°42′24″E
темп.,
°C
ветер,
м/с
пор.,
м/с
влажн.,
%
обл.,
%
осадки,
мм/ч
давл.,
гПа
погр.,
м
20 января, ср
ср2001:00+3з3495100 0.4 1020258
04:00+4ююз2289100 0.6 1019251
07:00+3ю2190100 0.3 1019226
10:00+3ю3392100 0.8 1020234
13:00+2ю2391100 0.9 1019241
16:00+4ююв1171100 1.4 1018385
19:00+3юв4690100 0.0 1022308
22:00+2юв4592100 0.0 1022334
21 января, чт
чт2101:00+3ююв4688100 0.0 1024401
04:00+1ююв5884100 0.1 1023360
07:00+1ю61079100 0.0 1027521
10:00+2ю7967100 0.0 1028546
13:00+7з6113996 0.0 10302213
16:00+5ююз665791 0.1 1030992
19:00+3юв346734 0.0 1034114
22:00+1вюв357734 0.0 1035121
22 января, пт
пт2201:000всв34871 0.0 103698
04:00−1св12951 0.0 103521
07:000з23910 0.0 103539
10:00+2з23770 0.0 1035231
13:00+5зсз23570 0.0 1034641
16:00+7з22450 0.0 1032853
19:00+4ююз23570 0.0 103223
22:00+2ююз22630 0.0 103222
23 января, сб
сб2301:000ююв11710 0.0 103222
04:000всв11700 0.0 103122
07:00−1юв01720 0.0 103122
10:00+3ю00560 0.0 1031144
13:00+6з01460 0.0 1029571
16:00+7юз01400 0.0 1027755
19:00+4юв12550 0.0 102822
22:00+2вюв23610 0.0 102834
24 января, вс
вс2401:00+1в23650 0.0 102727
04:000всв23650 0.0 102623
07:00−1всв11680 0.0 102621
10:00+3сз11530 0.0 1026147
13:00+6зсз22430 0.0 1024517
16:00+8зсз12360 0.0 1023634
19:00+4юз12530 0.0 102322
22:00+2ююв11600 0.0 102422